ZQ-2 R/B

基本信息
目录编号:
58556
目录名称:
ZQ-2 R/B
国际标识:
2023-193D
轨道中心:
EARTH
物体状态:
已陨落(2025-02-02)
发射日期:
2023-12-08 UTC
国别:
中国 (CN)
轨道信息
数据来源: 国际轨道数据
星历时间: 2025-02-02T21:28:40+0800
半长轴: 6524.216km
偏心率: 0.0007595
轨道倾角: 97.221°
近地点辐角: 267.059°
升交点赤经: 58.193°
平近点角: 161.201°
近地点: 141.125km
远地点: 151.037km
周期: 87.408分钟
每日圈数: 16.474428
详细信息
发射场:
JSC
轨道高度:
LEO
数据来源:
AOE Integration Group
参考系:
TEME
时间系统:
UTC
历元类型:
SGP4
2D轨道图
3D轨道图
轨道高度分析图
轨道倾角分析图
轨道综合分析图
查看轨道综合分析图